Regional Weather Roundup
Issued by NWS Jackson, KY

Home | Current Version | Previous Version | Text Only | Print | Product List | Glossary Off
Versions: 1 2 3 4 5 6 7 8 9 10 11 12 13 14 15 16 17 18 19 20 21 22 23 24 25 26 27 28 29 30 31 32 33 34 35 36 37 38 39 40 41 42 43 44 45 46 47 48 49 50

249
ASUS43 KJKL 061410
RWRJKL

EAST KENTUCKY HOURLY WEATHER ROUNDUP
NATIONAL WEATHER SERVICE JACKSON KY
900 AM EST TUE DEC 06 2016

NOTE: "FAIR" INDICATES FEW OR NO CLOUDS BELOW 12,000 FEET WITH
NO SIGNIFICANT WEATHER AND/OR OBSTRUCTIONS TO VISIBILITY.

* THESE REPORTS ARE NOT UNDER NWS QUALITY CONTROL AND MAY NOT
  REPORT WEATHER SUCH AS PRECIPITATION AND FOG.

KYZ079-080-083-085-087-088-110-112-115-119-120-061500
...EASTERN KENTUCKY...

CITY           SKY/WX    TMP DP  RH WIND       PRES   REMARKS
JACKSON        LGT RAIN  48  46  93 VRB5      29.64F
LONDON         RAIN      52  48  86 S12       29.67R FOG
SOMERSET*      LGT RAIN  50  50 100 SE6       29.62F
MONTICELLO*    CLOUDY    55  53  93 SE8       29.60F
WILLIAMSBURG*  CLOUDY    50  50 100 SE12G17   29.68R
MIDDLESBORO*   RAIN      49  47  95 CALM      29.70R
HARLAN APT*    CLOUDY    50  45  81 CALM      29.71R
PIKE CO APT*   LGT RAIN  47  47 100 E10       29.66F
MOREHEAD APT*  LGT RAIN  45  43  93 E8        29.67S
ASHLAND*       CLOUDY    45  43  93 E3        29.70F
$$

KYZ035-036-041-042-044-050-067-078-099-061500
...CENTRAL KENTUCKY...

CITY           SKY/WX    TMP DP  RH WIND       PRES   REMARKS
MT STERLING*   LGT RAIN  43  43 100 SE8       29.64F
FLEMING/MASON* RAIN      41  41  99 E7        29.66F
DANVILLE*      LGT RAIN  45  45 100 NE6       29.63F
LEXINGTON      LGT RAIN  44  41  89 E7        29.65S FOG
FRANKFORT      CLOUDY    43  40  89 E6        29.63F
LOUISVILLE     HVY RAIN  43  40  89 N5        29.66R VSB 3/4
LEBANON*       CLOUDY    45  45 100 CALM      29.63F FOG
GLASGOW*       RAIN     N/A N/A N/A CALM      29.63S
BOWLING GREEN  LGT RAIN  47  45  93 N5        29.64S FOG
$$

KYZ091>093-OHZ055-061-077-WVZ005-015-034-035-042-061500
...SOUTHERN OHIO/WEST VIRGINIA...

CITY           SKY/WX    TMP DP  RH WIND       PRES   REMARKS
COVINGTON      LGT RAIN  40  40 100 E6        29.65F FOG
COLUMBUS       LGT RAIN  39  36  89 E13       29.71F WCI  31
DAYTON         LGT RAIN  37  35  92 E9        29.69F FOG     WCI  30
WILMINGTON     RAIN      38  38 100 E9        29.67R FOG     WCI  31
HUNTINGTON     LGT RAIN  45  43  93 NE6       29.69F FOG
CHARLESTON     LGT RAIN  48  39  71 E7        29.71F
PINEVILLE*     LGT RAIN  43  39  83 MISG      29.83F
BECKLEY        RAIN      39  36  89 SE20G37   29.79F WCI  29
BLUEFIELD      RAIN      36  34  92 SE14G28   29.82F FOG     WCI  27
LOGAN CO APT*  LGT RAIN  45  43  93 SE10G17   29.70F
$$

VAZ002-007-008-TNZ017-027-036-066-071-061500
...SOUTHWEST VIRGINIA/EAST TENNESSEE...

CITY           SKY/WX    TMP DP  RH WIND       PRES   REMARKS
WISE*          RAIN      45  45 100 S7G16     29.72F
JONESVILLE*    LGT RAIN  46  46 100 NE9       29.73S
ABINGDON*      CLOUDY    45  42  89 E22G28    29.76S
BRISTOL        CLOUDY    46  43  89 N6        29.76R
MORRISTOWN*    CLOUDY    48  46  93 E14G23    29.65F
SEVIERVILLE*   PTSUNNY   48  46  93 VRB6      29.65F
KNOXVILLE      HVY RAIN  50  48  93 W16G23    29.72R FOG
OAK RIDGE      HVY RAIN  51  49  92 E9        29.69R VSB 1
CROSSVILLE     CLOUDY    52  51  97 VRB7      29.64F
NASHVILLE      HVY RAIN  56  53  90 W7        29.64R VSB 3/4
$$

...KEY TO REMARKS...
VSB - VISIBILITY IN MILES
WCI - WIND CHILL INDEX
HX  - HEAT INDEX

$$




USA.gov is the U.S. government's official web portal to all federal, state and local government web resources and services.